Weather Roundup
Issued by NWS

Home | Current Version | Previous Version | Graphics & Text | Print | Product List | Glossary Off
Versions: 1 2 3 4 5 6 7 8 9 10 11 12 13 14 15 16 17 18 19 20 21 22 23 24 25 26 27 28 29 30 31 32 33 34 35 36 37 38 39 40 41 42 43 44 45 46 47 48 49 50

616
NZUS93 KARX 091710
HRRWXR

CURRENT HOURLY OBSERVATIONS ACROSS
MUCH OF THE UPPER MISSISSIPPI VALLEY
NATIONAL WEATHER SERVICE LA CROSSE WI
1100 AM CST FRI DEC 09 2016


...SOUTHEAST MINNESOTA...


CITY           SKY/WX    TMP DP  RH WIND       PRES   REMARKS
ROCHESTER      SUNNY     12   8  84 W7        30.53F WCI   1
ROCHESTER/MAYO CLOUDY    14   9  79 W7        30.54F WCI   4
WINONA           N/A     19  12  73 NW3       30.57F
AUSTIN         SUNNY     12   9  85 W3        30.54F
ALBERT LEA     MOSUNNY   16  10  79 W6        30.55S WCI   7
DODGE CENTER   FLURRIES  12   9  85 SW6       30.52F WCI   3
PRESTON        SUNNY     12   6  79 W6        30.54F WCI   2
OWATONNA       LGT SNOW  12   7  79 SW8       30.55S WCI   1
FARIBAULT      SUNNY     10   7  85 W6        30.55F WCI   1
$$

...ELSEWHERE IN MINNESOTA...


CITY           SKY/WX    TMP DP  RH WIND       PRES   REMARKS
MINNEAPOLIS    PTSUNNY   15   8  73 VRB6      30.56S WCI   6
INTNL FALLS    LGT SNOW   5  -1  76 NW7       30.47F WCI  -7
DULUTH         PTSUNNY   10   1  67 NW10      30.45F WCI  -4
RED WING       LGT SNOW  16   9  73 W5        30.56F WCI   9
REDWOOD FALLS  CLOUDY     8   3  80 NW7       30.59F HAZE    WCI  -3
MANKATO        SUNNY     10   5  80 W10       30.58F WCI  -4
WORTHINGTON    SUNNY      8   4  83 W6        30.55S WCI  -2
FAIRMONT       CLOUDY    10   5  80 NW5       30.58F WCI   2
$$

...SOUTHWEST WISCONSIN...


CITY           SKY/WX    TMP DP  RH WIND       PRES   REMARKS
LA CROSSE      MOSUNNY   22  10  60 NW7       30.57S WCI  13
PRAIRIE DU CHI SUNNY     21  11  65 NW5       30.58F WCI  14
BOSCOBEL       PTSUNNY   22  12  65 VRB5      30.58S WCI  16
LONE ROCK      MOSUNNY   23  11  60 W7        30.55F WCI  15
PLATTEVILLE    SUNNY     19  14  81 W7        30.55S WCI  10
FORT MC COY    MOSUNNY   20  11  67 NW6       30.55S WCI  12
CAMP DOUGLAS   MOSUNNY   21   9  58 NW8       30.52F WCI  12
MAUSTON-NEW LI SUNNY     20  10  65 NW10      30.52F WCI   9
VIROQUA        CLOUDY    17  11  75 NW5       30.51S WCI  10
WIS DELLS      MOSUNNY   21  11  64 W7        30.51F WCI  12
$$

...ELSEWHERE IN WISCONSIN...


CITY           SKY/WX    TMP DP  RH WIND       PRES   REMARKS
MILWAUKEE      MOSUNNY   26  11  52 W14       30.49F WCI  14
MADISON        MOSUNNY   21  10  62 NW10      30.51F WCI  10
GREEN BAY      SUNNY     26  12  55 W15       30.46F WCI  14
EAU CLAIRE     CLOUDY    16  12  84 W6        30.52F WCI   7
BLACK RVR FLS  PTSUNNY   20   8  61 NW5       30.54F WCI  13
MEDFORD        CLOUDY    14   7  73 NW7       30.44F WCI   4
WAUSAU         MOSUNNY   17   8  67 W9        30.45F WCI   6
WIS RAPIDS     CLOUDY    18  10  71 N8        30.50F WCI   8
MARSHFIELD     CLOUDY    15   8  73 NW9       30.47F WCI   3
RICE LAKE      LGT SNOW  17  11  79 W3        30.51F
$$

...NORTHEAST IOWA...


CITY           SKY/WX    TMP DP  RH WIND       PRES   REMARKS
WATERLOO       SUNNY     18  10  71 NW6       30.60S WCI  10
DUBUQUE        SUNNY     18  11  74 W7        30.55F WCI   9
DECORAH        SUNNY     16  10  79 CALM      30.54F
MASON CITY     MOSUNNY   16  10  77 W7        30.57F WCI   6
CHARLES CITY   CLOUDY    14   9  79 CALM      30.58S
OELWEIN        SUNNY     14  10  85 NW8       30.58F WCI   3
$$

...ELSEWHERE IN IOWA...


CITY           SKY/WX    TMP DP  RH WIND       PRES   REMARKS
DES MOINES     CLOUDY    18   8  65 VRB5      30.61F WCI  11
IOWA CITY      SUNNY     21  11  65 NW8       30.63F WCI  11
FORT DODGE     MOSUNNY   12   7  79 W5        30.59F WCI   4
MARSHALLTOWN   CLOUDY    16  10  77 W5        30.59F WCI   9
CEDAR RAPIDS   SUNNY     17  12  80 NW12      30.59F WCI   4
$$

...NORTHERN ILLINOIS...


CITY           SKY/WX    TMP DP  RH WIND       PRES   REMARKS
CHICAGO-OHARE  FLURRIES  24  16  71 W10       30.52F WCI  14
CHICAGO-MIDWAY FLURRIES  26  14  60 W10       30.53F WCI  16
MOLINE         SUNNY     23  13  65 W8        30.60F WCI  14
ROCKFORD       FLURRIES  24  15  68 W10       30.56F WCI  14
PEORIA         MOSUNNY   26  14  60 NW12      30.60F WCI  16
$$

NOTE: "FAIR" INDICATES FEW OR NO CLOUDS BELOW 12,000 FEET WITH NO
SIGNIFICANT WEATHER AND/OR OBSTRUCTIONS TO VISIBILITY. WIND
SPEEDS ARE IN MILES-PER-HOUR.




USA.gov is the U.S. government's official web portal to all federal, state and local government web resources and services.